Regional Weather Roundup
Issued by NWS Midland/Odessa, TX

Skip options and go directly to product.
Home | Oldest Version | Previous Version | Current Version | All | Text Only | Save Text | Print | Product List | Glossary Off

Skip product version selection by date and time.   

623
ASUS44 KMAF 251910
RWRMAF
MIDLAND AREA WEATHER ROUNDUP
NATIONAL WEATHER SERVICE MIDLAND TX
200 PM CDT SAT OCT 25 2014

...IN SOUTHWEST TEXAS AND SOUTHEAST NEW MEXICO...

CITY           SKY/WX    TMP DP  RH WIND       PRES   REMARKS
ALPINE         SUNNY     80  49  33 SW10G18   30.31F
ANDREWS        FAIR      84  52  33 SW8       30.18F
ARTESIA        NOT AVBL
BIG SPRING     SUNNY     83  53  34 S7        30.18F
CARLSBAD       SUNNY     77  54  44 SE7       30.16F
DRYDEN           N/A     82  60  47 VRB3      30.14F
FORT STOCKTON  SUNNY     85  50  29 S8        30.16F
GUAD PASS      SUNNY     77  47  34 SW22G28   30.31F
HOBBS          SUNNY     81  50  34 S10       30.20F
MARFA          SUNNY     77  46  33 W3        30.30F
MIDLAND AIRPK  SUNNY     86  49  27 S9        30.16F
MIDLAND INTL   SUNNY     85  50  29 S8        30.15F
ODESSA         SUNNY     85  51  31 S6        30.17F
PECOS          SUNNY     83  53  34 CALM      30.14F
PRESIDIO       FAIR      83  54  36 CALM      30.18F
SEMINOLE       SUNNY     83  51  32 SW9       30.19F
SNYDER         SUNNY     79  61  53 S9        30.16F
WINK           SUNNY     84  51  31 SW5       30.14F
$$
...OTHER STATIONS IN TEXAS...

CITY           SKY/WX    TMP DP  RH WIND       PRES   REMARKS
ABILENE        SUNNY     87  53  31 S10G20    30.13F
AMARILLO       SUNNY     83  49  30 S18       30.15F
AUSTIN         SUNNY     86  60  41 S12       30.12F
BROWNSVILLE    MOSUNNY   85  67  54 VRB5      30.11F
CORPUS CHRISTI MOSUNNY   83  61  47 E8        30.13F
DALLAS FTW     SUNNY     85  61  44 SW7       30.10F
DEL RIO        SUNNY     84  63  49 SE12      30.12F
EL PASO        SUNNY     79  48  33 CALM      30.21F
HOUSTON INT    SUNNY     83  57  41 NE3       30.13F
LUBBOCK        SUNNY     83  51  33 SW9G22    30.16F
SAN ANGELO     SUNNY     87  52  29 S10       30.14F
SAN ANTONIO    SUNNY     86  57  37 VRB3      30.14F
WACO           SUNNY     85  61  44 SW7       30.11F
WICHITA FALLS  NOT AVBL
$$
...OTHER LOCATIONS IN NEW MEXICO...

CITY           SKY/WX    TMP DP  RH WIND       PRES   REMARKS
ALAMAGORDO     NOT AVBL
ALBUQUERQUE    SUNNY     72  38  29 SW3       30.29F
CANNON AFB     SUNNY     83  45  26 S10       30.18F
CLOVIS         SUNNY     82  46  28 SW9       30.21F
HOLLOMAN AFB   MOSUNNY   78  46  31 S3        30.21F
ROSWELL        SUNNY     77  53  43 SE9       30.17F
RUIDOSO        SUNNY     72  39  30 N10       30.37F
SANTA FE       SUNNY     72  22  15 SW9       30.32F
TRUTH OR CONSE SUNNY     76  44  32 SE7       30.25F
TUCUMCARI      SUNNY     86  32  14 SW16      30.13F
$$

USA.gov is the U.S. government's official web portal to all federal, state and local government web resources and services.